Flag for U.S.A. Weather past 2 weeks in Breckenridge, Colorado, U.S.A.

Now
43 °F

Broken clouds.


Feels Like: 36 °F
Forecast: 35 / 53 °F
Wind: 12 mph from West

Location: Copper Mountain - Red Cliff Pass

Current Time: May 29, 2015 at 3:10:08 PM

Latest Report: May 29, 2015 at 2:35 PM


Visibility: 10 mi

Pressure: 30.47 "Hg

Humidity: 46%

Dew point: 23 °F

Location of BreckenridgeLocation

Historic Weather in Breckenridge — Graph

°F

Breckenridge temperature yesterday

Maximum temperature yesterday: 45 °F (at 12:15 PM)
Minimum temperature yesterday: 34 °F (at 3:15 AM)
Average temperature yesterday: 38 °F

Past Weeks' High & Low Weather Summary

 TemperatureHumidityPressure
High46 °F (May 27, 3:35 PM)93% (May 17, 6:35 PM)30.48 "Hg (May 17, 6:35 PM)
Low27 °F (May 15, 10:55 PM)34% (May 14, 1:15 PM)29.88 "Hg (May 16, 4:55 AM)
Average35 °F71%30.23 "Hg
* Reported May 14 1:15 PM — May 29 1:55 PM, Breckenridge, Weather by CustomWeather, © 2015

Note: Actual official high and low records may vary slightly from our data, if they occured in-between our weather recording intervals... More about our weather records

Advertising

Breckenridge weather history for previous 24 hours

 ConditionsComfort  
Time TempWeatherWind HumidityBarometerVisibility
1:55 PM
Fri, May 29
41 °FCloudy.9 mph57%30.48 "Hg10 mi
1:35 PM39 °FMore clouds than sun.18 mph52%30.47 "Hg10 mi
1:15 PM41 °FCloudy.9 mph53%30.48 "Hg10 mi
12:55 PM37 °FMostly cloudy.18 mph56%30.47 "Hg10 mi
12:35 PM37 °FMostly cloudy.16 mph65%30.47 "Hg10 mi
12:15 PM39 °FMore clouds than sun.10 mph56%30.47 "Hg10 mi
11:55 AM37 °FCloudy.14 mph65%30.46 "Hg10 mi
11:35 AM37 °FCloudy.15 mph65%30.46 "Hg10 mi
11:15 AM37 °FCloudy.16 mph70%30.46 "Hg10 mi
10:55 AM37 °FMostly cloudy.12 mph70%30.45 "Hg10 mi
10:35 AM36 °FCloudy.12 mph70%30.45 "Hg10 mi
10:15 AM34 °FCloudy.14 mph75%30.45 "Hg10 mi
9:55 AM34 °FCloudy.14 mph75%30.44 "Hg10 mi
9:35 AM34 °FMore clouds than sun.14 mph75%30.44 "Hg10 mi
9:15 AM34 °FCloudy.12 mph75%30.44 "Hg10 mi
8:55 AM34 °FMostly cloudy.5 mph81%30.43 "Hg10 mi
8:35 AM34 °FMostly cloudy.16 mph81%30.43 "Hg10 mi
8:15 AM34 °FMostly cloudy.13 mph81%30.42 "Hg10 mi
7:55 AM34 °FCloudy.16 mph81%30.41 "Hg10 mi
7:35 AM34 °FMostly cloudy.16 mph81%30.41 "Hg10 mi
7:15 AM34 °FMostly cloudy.15 mph81%30.41 "Hg10 mi
6:55 AM34 °FMore clouds than sun.15 mph81%30.40 "Hg10 mi
6:15 AM34 °FOvercast.20 mph81%30.38 "Hg10 mi
5:55 AM34 °FOvercast.16 mph81%30.38 "Hg10 mi
5:35 AM32 °FMostly cloudy.13 mph87%30.38 "Hg10 mi
5:15 AM34 °FMostly cloudy.6 mph75%30.38 "Hg10 mi
4:55 AM32 °FPassing clouds.7 mph75%30.38 "Hg10 mi
4:35 AM32 °FClear.10 mph80%30.38 "Hg10 mi
4:15 AM32 °FPassing clouds.9 mph80%30.38 "Hg10 mi
3:55 AM32 °FOvercast.7 mph87%30.38 "Hg10 mi
3:35 AM34 °FFog.14 mph87%30.39 "Hg1 mi
3:15 AM34 °FLow clouds.10 mph87%30.39 "Hg10 mi
2:55 AM34 °FMostly cloudy.10 mph87%30.39 "Hg10 mi
2:35 AM34 °FMostly cloudy.12 mph87%30.40 "Hg10 mi
2:15 AM34 °FMostly cloudy.13 mph87%30.39 "Hg10 mi
1:55 AM34 °FOvercast.6 mph87%30.39 "Hg10 mi
1:35 AM34 °FMostly cloudy.10 mph87%30.40 "Hg10 mi
1:15 AM34 °FMostly cloudy.13 mph87%30.40 "Hg10 mi
12:35 AM34 °FLow clouds.5 mph87%30.41 "Hg10 mi
12:15 AM34 °FMostly cloudy.5 mph81%30.41 "Hg10 mi
11:55 PM
Thu, May 28
34 °FPassing clouds.13 mph81%30.42 "Hg10 mi
11:35 PM34 °FPassing clouds.13 mph81%30.41 "Hg10 mi
11:15 PM34 °FPassing clouds.14 mph81%30.41 "Hg10 mi
10:55 PM34 °FPassing clouds.16 mph81%30.41 "Hg10 mi
10:35 PM34 °FPassing clouds.16 mph81%30.42 "Hg10 mi
10:15 PM34 °FPassing clouds.15 mph81%30.42 "Hg10 mi
9:35 PM34 °FPassing clouds.15 mph81%30.41 "Hg10 mi
9:15 PM34 °FFog.14 mph87%30.39 "Hg1 mi
8:55 PM34 °FBroken clouds.13 mph87%30.38 "Hg10 mi
8:35 PM34 °FBroken clouds.18 mph87%30.37 "Hg10 mi
8:15 PM36 °FCloudy.7 mph87%30.38 "Hg10 mi
7:55 PM34 °FMostly cloudy.No wind93%30.38 "Hg10 mi
7:35 PM36 °FMostly cloudy.12 mph87%30.40 "Hg10 mi
7:15 PM36 °FCloudy.8 mph87%30.40 "Hg10 mi
6:55 PM36 °FLight snow. Low clouds.9 mph87%30.40 "Hg1 mi
6:35 PM36 °FLight rain. Mostly cloudy.8 mph87%30.40 "Hg7 mi
6:15 PM37 °FThunderstorms. Cloudy.24 mph75%30.38 "Hg7 mi
5:55 PM41 °FBroken clouds.28 mph57%30.36 "Hg10 mi
5:35 PM41 °FThundershowers. Sunny.18 mph53%30.36 "Hg10 mi
4:55 PM45 °FScattered clouds.20 mph42%30.35 "Hg10 mi
3:55 PM45 °FScattered clouds.15 mph42%30.37 "Hg10 mi
3:35 PM45 °FScattered clouds.16 mph42%30.36 "Hg10 mi
3:15 PM45 °FBroken clouds.17 mph42%30.37 "Hg10 mi
Weather by CustomWeather, © 2015

See weather overviewHow to use our weather pages